| time (UTC) | temp C | wind direction | speed KPH | gust KPH | rain 1hr cm | rain 24hr cm | rain mn cm | humidity % | barometer mb |
| 20260510120027 | 21 | 45 | 3.2 | 6.4 | 0.00 | 0.00 | 0.00 | 37 | 1011.1 |
| 20260510115016 | 20 | 270 | 3.2 | 8.0 | 0.00 | 0.00 | 0.00 | 40 | 1011.4 |
| 20260510105016 | 19 | 225 | 4.8 | 9.7 | 0.00 | 0.00 | 0.00 | 45 | 1012.5 |
| 20260510104013 | 18 | 180 | 3.2 | 6.4 | 0.00 | 0.00 | 0.00 | 46 | 1012.7 |
| 20260510103021 | 19 | 135 | 3.2 | 8.0 | 0.00 | 0.00 | 0.00 | 43 | 1012.6 |
| 20260510102016 | 19 | 135 | 3.2 | 6.4 | 0.00 | 0.00 | 0.00 | 45 | 1012.8 |
| 20260510101015 | 18 | 270 | 4.8 | 12.9 | 0.00 | 0.00 | 0.00 | 47 | 1012.8 |
| 20260510100032 | 18 | 270 | 6.4 | 9.7 | 0.00 | 0.00 | 0.00 | 51 | 1013.0 |
| 20260510095016 | 18 | 135 | 3.2 | 6.4 | 0.00 | 0.00 | 0.00 | 46 | 1013.0 |
| 20260510094011 | 17 | 90 | 4.8 | 8.0 | 0.00 | 0.00 | 0.00 | 47 | 1013.2 |
| 20260510093015 | 17 | 180 | 4.8 | 11.3 | 0.00 | 0.00 | 0.00 | 47 | 1013.4 |
| 20260510092014 | 17 | 135 | 4.8 | 9.7 | 0.00 | 0.00 | 0.00 | 48 | 1013.5 |
| 20260510091018 | 16 | 90 | 3.2 | 6.4 | 0.00 | 0.00 | 0.00 | 48 | 1013.8 |
| 20260510090029 | 16 | 180 | 4.8 | 12.9 | 0.00 | 0.00 | 0.00 | 50 | 1014.0 |
| 20260510085012 | 16 | 180 | 3.2 | 8.0 | 0.00 | 0.00 | 0.00 | 50 | 1014.3 |
| 20260510084016 | 16 | 180 | 3.2 | 6.4 | 0.00 | 0.00 | 0.00 | 50 | 1014.4 |
| 20260510083022 | 16 | 45 | 3.2 | 6.4 | 0.00 | 0.00 | 0.00 | 53 | 1014.4 |
| 20260510081016 | 16 | 135 | 6.4 | 11.3 | 0.00 | 0.00 | 0.00 | 51 | 1014.7 |
| 20260510080030 | 16 | 135 | 6.4 | 11.3 | 0.00 | 0.00 | 0.00 | 53 | 1014.7 |
| 20260510075016 | 15 | 135 | 6.4 | 11.3 | 0.00 | 0.00 | 0.00 | 55 | 1014.9 |
| 20260510074012 | 15 | 135 | 6.4 | 12.9 | 0.00 | 0.00 | 0.00 | 58 | 1015.1 |
| 20260510073016 | 15 | 135 | 4.8 | 9.7 | 0.00 | 0.00 | 0.00 | 60 | 1015.3 |
| 20260510072016 | 14 | 90 | 4.8 | 8.0 | 0.00 | 0.00 | 0.00 | 61 | 1015.4 |
| 20260510071018 | 14 | 135 | 6.4 | 8.0 | 0.00 | 0.00 | 0.00 | 62 | 1015.5 |
| 20260510063019 | 12 | 135 | 3.2 | 6.4 | 0.00 | 0.00 | 0.00 | 70 | 1016.2 |
| 20260510062016 | 11 | 90 | 3.2 | 6.4 | 0.00 | 0.00 | 0.00 | 70 | 1016.5 |
| 20260510061013 | 11 | 45 | 3.2 | 6.4 | 0.00 | 0.00 | 0.00 | 74 | 1016.7 |
| 20260510060028 | 10 | 45 | 3.2 | 6.4 | 0.00 | 0.00 | 0.00 | 75 | 1016.8 |
| 20260510055017 | 10 | 90 | 1.6 | 6.4 | 0.00 | 0.00 | 0.00 | 79 | 1016.8 |
| 20260510054016 | 9 | 45 | 1.6 | 4.8 | 0.00 | 0.00 | 0.00 | 79 | 1016.8 |
| 20260510053024 | 8 | 45 | 1.6 | 4.8 | 0.00 | 0.00 | 0.00 | 82 | 1016.9 |
| 20260510051015 | 7 | 90 | 3.2 | 4.8 | 0.00 | 0.00 | 0.00 | 85 | 1016.9 |
| 20260510050019 | 6 | 45 | 1.6 | 6.4 | 0.00 | 0.00 | 0.00 | 87 | 1017.0 |
| 20260510045012 | 6 | 45 | 1.6 | 6.4 | 0.00 | 0.00 | 0.00 | 89 | 1016.9 |
| 20260510044013 | 5 | 45 | 1.6 | 4.8 | 0.00 | 0.00 | 0.00 | 91 | 1017.0 |
| 20260510043015 | 5 | 45 | 0.0 | 3.2 | 0.00 | 0.00 | 0.00 | 92 | 1017.2 |
| 20260510042013 | 4 | 45 | 3.2 | 6.4 | 0.00 | 0.00 | 0.00 | 94 | 1017.1 |
| 20260510040020 | 3 | 45 | 1.6 | 3.2 | 0.00 | 0.00 | 0.00 | 94 | 1017.3 |
| 20260510031006 | 2 | 270 | 0.0 | 1.6 | 0.00 | 0.00 | 0.00 | 94 | 1017.7 |
| 20260510030012 | 2 | 90 | 0.0 | 3.2 | 0.00 | 0.00 | 0.00 | 94 | 1017.7 |
| 20260510025006 | 2 | 90 | 0.0 | 3.2 | 0.00 | 0.00 | 0.00 | 94 | 1017.7 |
| 20260510024011 | 2 | 45 | 0.0 | 1.6 | 0.00 | 0.00 | 0.00 | 94 | 1017.6 |
| 20260510022010 | 3 | 0 | 1.6 | 3.2 | 0.00 | 0.00 | 0.00 | 94 | 1018.0 |
| 20260510021011 | 2 | 45 | 0.0 | 1.6 | 0.00 | 0.00 | 0.00 | 94 | 1018.1 |
| 20260510015010 | 2 | 45 | 0.0 | 0.0 | 0.00 | 0.00 | 0.00 | 94 | 1018.2 |
| 20260510014008 | 2 | 0 | 0.0 | 1.6 | 0.00 | 0.00 | 0.00 | 93 | 1018.1 |
| 20260510013010 | 2 | 0 | 0.0 | 0.0 | 0.00 | 0.00 | 0.00 | 93 | 1018.0 |
| 20260510012009 | 2 | 0 | 0.0 | 1.6 | 0.00 | 0.00 | 0.00 | 93 | 1018.1 |
| 20260510011010 | 2 | 0 | 0.0 | 0.0 | 0.00 | 0.00 | 0.00 | 93 | 1018.3 |
| 20260510010015 | 2 | 0 | 0.0 | 0.0 | 0.00 | 0.00 | 0.00 | 93 | 1018.5 |
| 20260510004008 | 2 | 180 | 0.0 | 1.6 | 0.00 | 0.00 | 0.00 | 93 | 1018.5 |
| 20260510003009 | 2 | 0 | 0.0 | 1.6 | 0.00 | 0.00 | 0.00 | 92 | 1018.5 |
| 20260510002009 | 3 | 180 | 0.0 | 1.6 | 0.00 | 0.00 | 0.00 | 93 | 1018.6 |
| 20260510001011 | 3 | 45 | 0.0 | 0.0 | 0.00 | 0.00 | 0.00 | 92 | 1018.6 |
| 20260509234009 | 3 | 45 | 0.0 | 1.6 | 0.00 | 0.00 | 0.00 | 91 | 1018.8 |
| 20260509233010 | 3 | 45 | 0.0 | 0.0 | 0.00 | 0.00 | 0.00 | 91 | 1019.0 |
| 20260509231006 | 4 | 45 | 0.0 | 3.2 | 0.00 | 0.00 | 0.00 | 89 | 1018.9 |
| 20260509225008 | 5 | 45 | 1.6 | 3.2 | 0.00 | 0.00 | 0.00 | 88 | 1018.9 |
| 20260509224006 | 5 | 0 | 0.0 | 3.2 | 0.00 | 0.00 | 0.00 | 88 | 1019.2 |
| 20260509222009 | 5 | 45 | 0.0 | 3.2 | 0.00 | 0.00 | 0.00 | 86 | 1019.0 |
| 20260509221009 | 6 | 0 | 0.0 | 3.2 | 0.00 | 0.00 | 0.00 | 86 | 1019.1 |
| 20260509220014 | 6 | 180 | 1.6 | 4.8 | 0.00 | 0.00 | 0.00 | 85 | 1019.0 |
| 20260509215008 | 6 | 270 | 1.6 | 3.2 | 0.00 | 0.00 | 0.00 | 87 | 1019.0 |
| 20260509214008 | 6 | 270 | 0.0 | 1.6 | 0.00 | 0.00 | 0.00 | 85 | 1019.0 |
| 20260509213008 | 6 | 225 | 0.0 | 1.6 | 0.00 | 0.00 | 0.00 | 83 | 1018.8 |
| 20260509211009 | 7 | 270 | 0.0 | 1.6 | 0.00 | 0.00 | 0.00 | 80 | 1018.8 |
| 20260509205008 | 8 | 90 | 1.6 | 3.2 | 0.00 | 0.00 | 0.00 | 78 | 1018.7 |
| 20260509204009 | 8 | 90 | 3.2 | 4.8 | 0.00 | 0.00 | 0.00 | 77 | 1018.6 |
| 20260509202009 | 9 | 45 | 3.2 | 4.8 | 0.00 | 0.00 | 0.00 | 76 | 1018.5 |
| 20260509201007 | 10 | 90 | 3.2 | 4.8 | 0.00 | 0.00 | 0.00 | 75 | 1018.6 |
| 20260509200012 | 10 | 45 | 3.2 | 4.8 | 0.00 | 0.00 | 0.00 | 75 | 1018.6 |
| 20260509195008 | 10 | 90 | 3.2 | 4.8 | 0.00 | 0.00 | 0.00 | 73 | 1018.4 |
| 20260509194008 | 11 | 45 | 3.2 | 4.8 | 0.00 | 0.00 | 0.00 | 72 | 1018.5 |
| 20260509193010 | 11 | 45 | 3.2 | 4.8 | 0.00 | 0.00 | 0.00 | 71 | 1018.4 |
| 20260509192008 | 11 | 45 | 3.2 | 4.8 | 0.00 | 0.00 | 0.00 | 69 | 1018.4 |
| 20260509191009 | 11 | 0 | 3.2 | 4.8 | 0.00 | 0.00 | 0.00 | 68 | 1018.5 |
| 20260509190012 | 12 | 45 | 1.6 | 4.8 | 0.00 | 0.00 | 0.00 | 67 | 1018.4 |
| 20260509185008 | 12 | 45 | 1.6 | 4.8 | 0.00 | 0.00 | 0.00 | 67 | 1018.2 |
| 20260509184009 | 12 | 90 | 1.6 | 6.4 | 0.00 | 0.00 | 0.00 | 66 | 1018.2 |
| 20260509183009 | 13 | 45 | 1.6 | 4.8 | 0.00 | 0.00 | 0.00 | 65 | 1018.2 |
| 20260509182008 | 13 | 90 | 1.6 | 4.8 | 0.00 | 0.00 | 0.00 | 63 | 1018.1 |
| 20260509180012 | 13 | 90 | 1.6 | 6.4 | 0.00 | 0.00 | 0.00 | 60 | 1018.0 |
| 20260509173010 | 14 | 45 | 3.2 | 6.4 | 0.00 | 0.00 | 0.00 | 58 | 1018.1 |
| 20260509172008 | 14 | 90 | 3.2 | 4.8 | 0.00 | 0.00 | 0.00 | 58 | 1018.1 |
| 20260509171008 | 14 | 315 | 3.2 | 6.4 | 0.00 | 0.00 | 0.00 | 56 | 1018.0 |
| 20260509170010 | 15 | 45 | 1.6 | 6.4 | 0.00 | 0.00 | 0.00 | 56 | 1018.0 |
| 20260509165008 | 15 | 0 | 3.2 | 4.8 | 0.00 | 0.00 | 0.00 | 54 | 1018.0 |
| 20260509164008 | 15 | 0 | 1.6 | 4.8 | 0.00 | 0.00 | 0.00 | 53 | 1017.9 |
| 20260509163014 | 15 | 45 | 1.6 | 6.4 | 0.00 | 0.00 | 0.00 | 55 | 1018.0 |
| 20260509162009 | 15 | 90 | 3.2 | 6.4 | 0.00 | 0.00 | 0.00 | 54 | 1018.0 |
| 20260509161008 | 15 | 45 | 3.2 | 6.4 | 0.00 | 0.00 | 0.00 | 54 | 1018.0 |
| 20260509160012 | 15 | 45 | 4.8 | 8.0 | 0.00 | 0.00 | 0.00 | 54 | 1018.0 |
| 20260509154009 | 15 | 90 | 4.8 | 8.0 | 0.00 | 0.00 | 0.00 | 55 | 1018.0 |
| 20260509153009 | 15 | 0 | 4.8 | 8.0 | 0.00 | 0.00 | 0.00 | 54 | 1018.0 |
| 20260509152009 | 15 | 45 | 3.2 | 6.4 | 0.00 | 0.00 | 0.00 | 54 | 1018.0 |
| 20260509151009 | 16 | 45 | 4.8 | 9.7 | 0.00 | 0.00 | 0.00 | 55 | 1017.9 |
| 20260509145007 | 15 | 45 | 4.8 | 8.0 | 0.00 | 0.00 | 0.00 | 55 | 1018.1 |
| 20260509144009 | 16 | 0 | 4.8 | 8.0 | 0.00 | 0.00 | 0.00 | 55 | 1017.9 |
| 20260509143009 | 16 | 45 | 4.8 | 8.0 | 0.00 | 0.00 | 0.00 | 54 | 1018.0 |
| 20260509142011 | 16 | 45 | 4.8 | 9.7 | 0.00 | 0.00 | 0.00 | 54 | 1018.0 |
| 20260509141007 | 16 | 0 | 4.8 | 8.0 | 0.00 | 0.00 | 0.00 | 54 | 1018.0 |
| 20260509135008 | 17 | 45 | 6.4 | 11.3 | 0.00 | 0.00 | 0.00 | 53 | 1018.1 |
| 20260509134009 | 17 | 45 | 6.4 | 11.3 | 0.00 | 0.00 | 0.00 | 52 | 1018.1 |
| 20260509132009 | 15 | 45 | 3.2 | 6.4 | 0.00 | 0.00 | 0.00 | 56 | 1018.7 |
| 20260509131006 | 15 | 180 | 3.2 | 6.4 | 0.00 | 0.00 | 0.00 | 57 | 1018.8 |
| 20260509130013 | 14 | 0 | 4.8 | 8.0 | 0.00 | 0.00 | 0.00 | 58 | 1018.8 |
| 20260509125007 | 15 | 0 | 4.8 | 6.4 | 0.00 | 0.00 | 0.00 | 58 | 1018.7 |
| 20260509124007 | 15 | 0 | 4.8 | 12.9 | 0.00 | 0.00 | 0.00 | 57 | 1018.9 |